510  
ASUS46 KSTO 151015  
RWRCA  
 
NORTHERN AND CENTRAL CA REGIONAL WEATHER ROUNDUP  
NATIONAL WEATHER SERVICE SACRAMENTO CA  
200 AM PST FRI DEC 15 2017  
 
NOTE: FAIR INDICATES FEW OR NO CLOUDS BELOW 12,000 FEET WITH NO  
SIGNIFICANT WEATHER AND/OR S TO VISIBILITY
.  
 
CAZ001-003-151100-  
NORTHWEST AREA  
 
CITY SKY/WX TMP DP RH WIND PRES REMARKS
 
CRESCENT CITY MOCLDY 44 42 93 CALM 30.21R FOG  
UKIAH PTCLDY 36 33 89 CALM 30.20S  

 
 
CAZ006-505>513-151100-  
BAY AREA  
 
CITY SKY/WX TMP DP RH WIND PRES REMARKS
 
SANTA ROSA PTCLDY 35 35 100 CALM 30.18S  
SAN RAFAEL N/A 46 MM MM MISG  
NAPA CLEAR 36 35 96 N3 30.19S FOG  
CONCORD CLEAR 39 35 86 CALM 30.20S  
OAKLAND CITY N/A MM MM MM MISG  
OAKLAND CLEAR 41 40 96 NE3 30.17S  
SAN FRAN CITY N/A 51 MM 65 MISG  
SAN FRAN ARPT PTCLDY 45 38 76 S3 30.17S  
LIVERMORE CLEAR 38 32 79 CALM 30.19R  
HAYWARD CLEAR 47 32 56 E5 30.16S  
REDWOOD CITY N/A 40 MM 85 MISG  
MOFFETT ARPT CLEAR 43 36 76 SW3 30.18R  
SAN JOSE ARPT CLEAR 42 35 76 SE5 30.17S  

 
CAZ034-037-514>518-151100-  
CENTRAL COAST  
 
CITY SKY/WX TMP DP RH WIND PRES REMARKS
 
WATSONVILLE CLEAR 44 35 70 W3 30.16R  
SALINAS CLEAR 45 26 47 SE8 30.14S  
MONTEREY CLEAR 47 31 53 E6 30.13R  
SAN LUIS OBISP CLEAR 40 28 62 CALM 30.13S  
SANTA MARIA CLEAR 42 24 49 E3 30.13S  

 
CAZ015-016-151100-  
NORTHERN SACRAMENTO VALLEY  
 
CITY SKY/WX TMP DP RH WIND PRES REMARKS
 
REDDING CLEAR 39 35 86 CALM 30.21S  
RED BLUFF PTCLDY 42 37 82 NW7 30.22S  
OROVILLE PTCLDY 42 40 92 CALM 30.21F  

 
CAZ016>018-151100-  
SOUTHERN SACRAMENTO VALLEY  
 
CITY SKY/WX TMP DP RH WIND PRES REMARKS
 
AUBURN CLEAR 43 37 81 E3 30.21S  
BEALE AFB CLEAR 40 37 87 CALM 30.19S  
LINCOLN FAIR 32 32 100 NE3 30.20S  
MARYSVILLE FOG 34 32 92 CALM 30.22S VSB 3/4  
SAC INTL ARPT CLEAR 37 37 100 NE3 30.21R FOG  
MATHER AIRPORT NOT AVBL  
DOWNTOWN SAC N/A 40 MM MM MISG  
SAC EXEC ARPT FOG 37 36 96 CALM 30.21S VSB 3/4  
VACAVILLE CLEAR 36 35 96 CALM 30.21S FOG  
TRAVIS AFB CLEAR 34 33 96 NE7 30.19S WCI 28  

 
CAZ019>021-151100-  
SAN JOAQUIN VALLEY  
 
CITY SKY/WX TMP DP RH WIND PRES REMARKS
 
STOCKTON CLEAR 35 31 85 NW3 30.20R  
MODESTO CLEAR 37 36 96 CALM 30.19S FOG  
MERCED CLEAR 37 32 82 CALM 30.19S HAZE  
LEMOORE CLEAR N/A N/A N/A SW3 30.20S HAZE  
FRESNO MOCLDY 38 34 85 E5 30.20F FOG WCI 34  
HANFORD CLEAR 33 32 96 CALM 30.21R FOG  
PORTERVILLE CLEAR 37 31 78 E5 30.20S HAZE WCI 33  
BAKERSFIELD PTCLDY 44 31 60 CALM 30.18S HAZE  

 
CAZ011-012-071-151100-  
NORTHERN MOUNTAINS  
 
CITY SKY/WX TMP DP RH WIND PRES REMARKS
 
YREKA PTCLDY 25 22 88 NE5 30.30F WCI 19  
MOUNT SHASTA PTCLDY 28 24 85 CALM 30.26F  
ALTURAS CLEAR 21 17 84 N3 30.31R FOG  

 
CAZ011-012-071-151100-  
SIERRA NEVADA MTNS  
 
CITY SKY/WX TMP DP RH WIND PRES REMARKS
 
BLUE CANYON CLEAR 56 9 15 CALM 30.32S  
TRUCKEE CLEAR 19 18 93 CALM 30.37S  
TAHOE VLY ARPT CLEAR 21 17 84 S3 30.36F  
MAMMOTH LAKES FAIR 16 5 62 N3 30.42S  

 
 
 
CLICK HERE TO GO TO PREVIOUS BULLETINS.

The Nexlab CA Page Main Text Page